Date,TemperatureHighF,TemperatureAvgF,TemperatureLowF,DewpointHighF,DewpointAvgF,DewpointLowF,HumidityHigh,HumidityAvg,HumidityLow,PressureMaxIn,PressureMinIn,WindSpeedMaxMPH,WindSpeedAvgMPH,GustSpeedMaxMPH,PrecipitationSumIn
2013-2-1,73.0,56.3,44.3,48.7,42.8,36.9,88,64,34,30.34,30.21,2,0,5,0.00
2013-2-2,50.2,49.3,48.8,45.5,45.2,45.0,88,86,83,30.21,30.19,0,0,4,0.00
2013-2-3,74.0,65.3,56.0,49.1,42.6,37.2,74,46,29,30.27,30.02,1,0,4,0.00
2013-2-4,73.4,63.2,56.0,65.5,58.6,49.4,95,85,69,30.03,29.79,1,0,4,0.03
2013-2-5,79.1,68.6,63.1,68.1,64.7,61.6,97,88,66,29.95,29.83,1,0,4,0.01
2013-2-6,66.9,64.4,60.9,65.0,62.2,57.9,96,93,88,30.00,29.82,1,0,4,0.45
2013-2-7,70.9,63.1,55.3,64.1,59.8,53.5,96,89,78,29.97,29.86,1,0,4,0.00
2013-2-8,59.0,56.7,55.3,51.1,50.1,49.5,82,78,75,30.11,30.09,0,0,4,0.00
2013-2-9,71.1,62.9,54.0,66.7,58.3,49.9,92,85,73,30.09,29.82,2,0,5,0.00
2013-2-10,73.5,66.2,58.7,70.1,59.0,45.8,93,79,52,29.93,29.72,3,1,9,0.10
2013-2-11,62.1,56.8,53.4,53.5,51.1,45.5,94,82,62,30.03,29.92,1,0,4,0.08
2013-2-12,63.5,57.8,54.7,59.9,55.1,51.4,96,91,77,29.97,29.79,1,0,4,0.04
2013-2-13,64.0,52.6,42.9,51.5,41.9,37.6,85,68,47,30.10,29.96,1,0,4,0.00
2013-2-14,70.0,50.7,34.9,46.5,38.5,33.0,95,68,31,30.14,30.01,1,0,4,0.00
2013-2-15,70.8,53.5,40.1,49.1,41.8,37.8,94,68,37,30.30,30.06,1,0,4,0.00
2013-2-16,65.3,49.8,36.1,37.0,32.4,27.4,78,54,31,30.42,30.23,1,0,4,0.00
2013-2-17,72.5,56.0,38.1,53.2,43.7,34.3,94,67,36,30.24,30.01,3,1,9,0.00
2013-2-18,73.3,66.5,55.6,66.4,60.4,50.4,92,81,67,30.05,29.82,4,1,11,0.58
2013-2-19,71.3,58.6,46.4,50.7,42.5,38.9,81,57,32,30.22,30.06,1,0,4,0.00
2013-2-20,63.6,57.6,53.8,62.4,50.2,35.9,96,78,49,30.09,29.74,2,0,9,0.16
2013-2-21,77.1,68.3,56.4,71.1,61.1,48.6,96,80,46,29.82,29.61,3,1,9,0.13
2013-2-22,66.8,59.6,53.7,52.9,47.9,41.5,84,66,52,29.96,29.81,1,0,5,0.00
2013-2-23,71.4,57.2,47.2,52.9,46.4,41.0,84,68,48,29.97,29.85,1,0,4,0.00
2013-2-24,71.4,58.4,43.4,58.9,51.3,40.8,94,78,62,29.91,29.63,1,0,12,0.00
2013-2-25,75.1,62.7,48.2,64.8,46.8,28.0,96,63,18,29.77,29.51,5,1,9,0.04
2013-2-26,67.0,53.6,42.9,40.5,36.5,32.9,68,54,35,29.91,29.76,1,0,6,0.00
2013-2-27,71.1,55.8,46.0,51.8,40.4,30.1,91,59,35,30.14,29.87,2,0,4,0.00
2013-2-28,59.9,48.7,41.1,35.8,31.8,28.6,70,53,39,30.27,30.13,1,0,4,0.00